Crossville, TN

2:49 PM CST on November 22, 2017 (GMT -0600)
Crossville Memorial-Whitson

Weather History for KCSV - June, 2014

Change the Weather History Date:

Monday, June 30, 2014

  Actual Average Record
Temperature  
Mean Temperature 74 °F 74 °F  
Max Temperature 80 °F 83 °F 100 °F (2012)
Min Temperature 67 °F 64 °F 52 °F (1954)
Degree Days  
Heating Degree Days 0    
Month to date heating degree days 0  
Since 1 June heating degree days 0  
Since 1 July heating degree days 4486  
Cooling Degree Days 9    
Month to date cooling degree days 228  
Year to date cooling degree days 346  
Since 1 June cooling degree days 228  
Growing Degree Days 24 (Base 50)    
Moisture  
Dew Point 69 °F    
Average Humidity 85    
Maximum Humidity 93    
Minimum Humidity 76    
Precipitation  
Precipitation 0.05 in 0.15 in 2.01 in (1965)
Month to date precipitation 4.33 4.60  
Year to date precipitation 22.24 28.98  
Sea Level Pressure  
Sea Level Pressure 30.08 in    
Wind  
Wind Speed 5 mph (South)    
Max Wind Speed 15 mph    
Max Gust Speed 20 mph    
Visibility 10 miles    
Events Rain , Thunderstorm    
T = Trace of Precipitation, MM = Missing Value Source: NWS Daily Summary

Daily Weather History Graph

Daily Weather History Graph

Search for Another Location

Airport or City:

Trip Planner

Search our weather history database for the weather conditions in past years. The results will help you decide how hot, cold, wet, or windy it might be!

Date:

Astronomy

Jun. 30, 2014 Rise Set
Actual Time 5:26 AM CDT 8:00 PM CDT
Civil Twilight 4:56 AM CDT 8:31 PM CDT
Nautical Twilight 4:19 AM CDT 9:08 PM CDT
Astronomical Twilight 3:37 AM CDT 9:49 PM CDT
Moon 8:32 AM CDT (6/30) 10:01 PM CDT (6/30)
Length of Visible Light 15h 34m
Length of Day
14h 34m
Waxing Crescent, 10% of the Moon is Illuminated
Jun 30
Waxing Crescent
Jul 5
First Quarter
Jul 12
Full
Jul 18
Last Quarter
Jul 26
New

Hourly Weather History & Observations

Time (CDT) Temp. Dew Point Humidity Pressure Visibility Wind Dir Wind Speed Gust Speed Precip Events Conditions
12:53 AM 68.0 °F 64.9 °F 90% 30.08 in 10.0 mi Calm Calm - N/A   Clear
1:53 AM 68.0 °F 64.9 °F 90% 30.07 in 10.0 mi South 3.5 mph - N/A   Clear
2:53 AM 68.0 °F 66.0 °F 93% 30.07 in 10.0 mi SSW 3.5 mph - N/A   Scattered Clouds
3:43 AM 70.0 °F 66.0 °F 87% 30.11 in 10.0 mi South 4.6 mph - N/A   Mostly Cloudy
3:53 AM 70.0 °F 66.0 °F 87% 30.05 in 10.0 mi SSE 5.8 mph - N/A   Mostly Cloudy
3:55 AM 70.0 °F 66.0 °F 87% 30.11 in 10.0 mi Variable 4.6 mph - N/A   Mostly Cloudy
4:25 AM 69.1 °F 66.0 °F 90% 30.12 in 6.0 mi South 5.8 mph - 0.01 in Rain Light Rain
4:38 AM 69.1 °F 66.0 °F 90% 30.13 in 10.0 mi South 4.6 mph - 0.01 in   Overcast
4:53 AM 68.0 °F 66.0 °F 93% 30.07 in 10.0 mi Variable 3.5 mph - 0.01 in   Overcast
5:30 AM 68.0 °F 66.0 °F 93% 30.13 in 10.0 mi South 3.5 mph - N/A   Mostly Cloudy
5:40 AM 68.0 °F 66.0 °F 93% 30.13 in 8.0 mi Variable 3.5 mph - N/A   Mostly Cloudy
5:53 AM 68.0 °F 66.0 °F 93% 30.09 in 10.0 mi Variable 4.6 mph - N/A   Overcast
6:15 AM 69.1 °F 66.9 °F 93% 30.14 in 10.0 mi Variable 3.5 mph - 0.00 in   Mostly Cloudy
6:22 AM 69.1 °F 66.9 °F 93% 30.14 in 10.0 mi Calm Calm - 0.00 in Thunderstorm Mostly Cloudy
6:37 AM 70.0 °F 66.9 °F 90% 30.15 in 10.0 mi Calm Calm - 0.00 in   Overcast
6:49 AM 69.8 °F 66.2 °F 88% 30.14 in 10.0 mi Calm Calm - 0.00 in   Mostly Cloudy
6:53 AM 69.1 °F 66.9 °F 93% 30.09 in 10.0 mi Calm Calm - 0.00 in   Overcast
7:24 AM 69.1 °F 66.9 °F 93% 30.15 in 10.0 mi South 3.5 mph - 0.03 in Thunderstorm Overcast
7:53 AM 70.0 °F 66.9 °F 90% 30.09 in 8.0 mi Variable 3.5 mph - 0.04 in Rain Light Rain
8:14 AM 70.0 °F 66.9 °F 90% 30.15 in 10.0 mi Variable 3.5 mph - 0.00 in   Overcast
8:23 AM 70.0 °F 68.0 °F 93% 30.15 in 10.0 mi South 3.5 mph - 0.00 in   Overcast
8:43 AM 70.0 °F 68.0 °F 93% 30.14 in 10.0 mi Variable 3.5 mph - 0.00 in   Overcast
8:53 AM 70.0 °F 68.0 °F 93% 30.10 in 10.0 mi SSW 5.8 mph - 0.00 in   Overcast
9:20 AM 71.1 °F 68.0 °F 90% 30.14 in 10.0 mi South 4.6 mph - N/A   Overcast
9:53 AM 72.0 °F 69.1 °F 91% 30.09 in 10.0 mi SSW 5.8 mph - N/A   Overcast
10:53 AM 72.0 °F 68.0 °F 87% 30.09 in 8.0 mi SW 8.1 mph - 0.00 in Rain Light Rain
11:03 AM 73.0 °F 70.0 °F 90% 30.14 in 10.0 mi Variable 3.5 mph - 0.00 in   Overcast
11:33 AM 73.9 °F 70.0 °F 87% 30.14 in 10.0 mi Calm Calm - 0.00 in   Overcast
11:53 AM 73.9 °F 70.0 °F 87% 30.08 in 10.0 mi Variable 3.5 mph - 0.00 in   Overcast
12:50 PM 75.2 °F 71.6 °F 89% 30.13 in 10.0 mi Calm Calm - N/A   Overcast
12:53 PM 75.9 °F 71.1 °F 85% 30.07 in 10.0 mi South 3.5 mph - N/A   Overcast
1:11 PM 78.1 °F 72.0 °F 81% 30.12 in 10.0 mi South 4.6 mph - N/A   Mostly Cloudy
1:33 PM 78.1 °F 71.1 °F 79% 30.11 in 10.0 mi Calm Calm - N/A   Mostly Cloudy
1:53 PM 75.0 °F 70.0 °F 84% 30.06 in 10.0 mi ESE 8.1 mph - N/A   Overcast
2:12 PM 77.0 °F 71.1 °F 82% 30.10 in 10.0 mi SE 6.9 mph - N/A   Mostly Cloudy
2:53 PM 78.1 °F 71.1 °F 79% 30.01 in 10.0 mi SSE 6.9 mph - N/A   Partly Cloudy
3:53 PM 79.0 °F 71.1 °F 77% 29.99 in 10.0 mi Variable 5.8 mph - N/A   Scattered Clouds
4:53 PM 79.0 °F 71.1 °F 77% 29.96 in 10.0 mi South 4.6 mph - N/A   Clear
5:53 PM 77.0 °F 71.1 °F 82% 29.96 in 10.0 mi South 6.9 mph - N/A   Clear
6:53 PM 77.0 °F 70.0 °F 79% 29.97 in 10.0 mi Variable 6.9 mph - N/A   Partly Cloudy
7:40 PM 75.9 °F 71.1 °F 85% 30.04 in 10.0 mi Variable 3.5 mph - N/A   Mostly Cloudy
7:53 PM 75.9 °F 71.1 °F 85% 29.98 in 10.0 mi Variable 4.6 mph - N/A   Overcast
8:16 PM 75.0 °F 71.1 °F 87% 30.04 in 10.0 mi SSE 4.6 mph - N/A   Scattered Clouds
8:53 PM 73.9 °F 71.1 °F 91% 29.98 in 8.0 mi South 4.6 mph - N/A   Clear
9:53 PM 73.0 °F 71.1 °F 93% 29.99 in 7.0 mi South 5.8 mph - N/A   Partly Cloudy
10:53 PM 73.0 °F 71.1 °F 93% 29.96 in 6.0 mi South 5.8 mph - N/A   Clear